Year,Month,Day,Hour,Minute,Value (Times are PST for temperature in C)
2013,05,06,00,00,15.60
2013,05,06,00,01,15.60
2013,05,06,00,02,15.60
2013,05,06,00,03,15.60
2013,05,06,00,04,15.60
2013,05,06,00,05,15.60
2013,05,06,00,06,15.60
2013,05,06,00,07,15.60
2013,05,06,00,08,15.60
2013,05,06,00,09,15.60
2013,05,06,00,10,15.50
2013,05,06,00,11,15.50
2013,05,06,00,12,15.50
2013,05,06,00,13,15.50
2013,05,06,00,14,15.50
2013,05,06,00,15,15.40
2013,05,06,00,16,15.40
2013,05,06,00,17,15.40
2013,05,06,00,18,15.40
2013,05,06,00,19,15.40
2013,05,06,00,20,15.40
2013,05,06,00,21,15.40
2013,05,06,00,22,15.40
2013,05,06,00,23,15.40
2013,05,06,00,24,15.40
2013,05,06,00,25,15.40
2013,05,06,00,26,15.30
2013,05,06,00,27,15.30
2013,05,06,00,28,15.30
2013,05,06,00,29,15.30
2013,05,06,00,30,15.30
2013,05,06,00,31,15.30
2013,05,06,00,32,15.30
2013,05,06,00,33,15.30
2013,05,06,00,34,15.30
2013,05,06,00,35,15.20
2013,05,06,00,36,15.20
2013,05,06,00,37,15.20
2013,05,06,00,38,15.20
2013,05,06,00,39,15.20
2013,05,06,00,40,15.20
2013,05,06,00,41,15.20
2013,05,06,00,42,15.20
2013,05,06,00,43,15.20
2013,05,06,00,44,15.20
2013,05,06,00,45,15.10
2013,05,06,00,46,15.10
2013,05,06,00,47,15.10
2013,05,06,00,48,15.00
2013,05,06,00,49,15.00
2013,05,06,00,50,15.00
2013,05,06,00,51,15.00
2013,05,06,00,52,15.00
2013,05,06,00,53,15.00
2013,05,06,00,54,14.90
2013,05,06,00,55,14.80
2013,05,06,00,56,14.70
2013,05,06,00,57,14.60
2013,05,06,00,58,14.50
2013,05,06,00,59,14.50
2013,05,06,01,00,14.40
2013,05,06,01,01,14.40
2013,05,06,01,02,14.30
2013,05,06,01,03,14.30
2013,05,06,01,04,14.30
2013,05,06,01,05,14.20
2013,05,06,01,06,14.20
2013,05,06,01,07,14.20
2013,05,06,01,08,14.20
2013,05,06,01,09,14.10
2013,05,06,01,10,14.10
2013,05,06,01,11,14.10
2013,05,06,01,12,14.10
2013,05,06,01,13,14.00
2013,05,06,01,14,14.00
2013,05,06,01,15,14.00
2013,05,06,01,16,14.00
2013,05,06,01,17,13.90
2013,05,06,01,18,13.90
2013,05,06,01,19,13.90
2013,05,06,01,20,13.90
2013,05,06,01,21,13.90
2013,05,06,01,22,13.90
2013,05,06,01,23,13.90
2013,05,06,01,24,13.80
2013,05,06,01,25,13.80
2013,05,06,01,26,13.80
2013,05,06,01,27,13.80
2013,05,06,01,28,13.80
2013,05,06,01,29,13.80
2013,05,06,01,30,13.80
2013,05,06,01,31,13.80
2013,05,06,01,32,13.80
2013,05,06,01,33,13.80
2013,05,06,01,34,13.80
2013,05,06,01,35,13.70
2013,05,06,01,36,13.70
2013,05,06,01,37,13.70
2013,05,06,01,38,13.70
2013,05,06,01,39,13.70
2013,05,06,01,40,13.70
2013,05,06,01,41,13.70
2013,05,06,01,42,13.70
2013,05,06,01,43,13.70
2013,05,06,01,44,13.70
2013,05,06,01,45,13.70
2013,05,06,01,46,13.70
2013,05,06,01,47,13.70
2013,05,06,01,48,13.70
2013,05,06,01,49,13.70
2013,05,06,01,50,13.70
2013,05,06,01,51,13.70
2013,05,06,01,52,13.60
2013,05,06,01,53,13.60
2013,05,06,01,54,13.60
2013,05,06,01,55,13.60
2013,05,06,01,56,13.70
2013,05,06,01,57,13.70
2013,05,06,01,58,13.80
2013,05,06,01,59,13.80
2013,05,06,02,00,13.90
2013,05,06,02,01,13.90
2013,05,06,02,02,13.90
2013,05,06,02,03,14.00
2013,05,06,02,04,14.00
2013,05,06,02,05,14.00
2013,05,06,02,06,14.00
2013,05,06,02,07,14.00
2013,05,06,02,08,14.00
2013,05,06,02,09,14.00
2013,05,06,02,10,14.00
2013,05,06,02,11,14.00
2013,05,06,02,12,14.00
2013,05,06,02,13,14.00
2013,05,06,02,14,14.00
2013,05,06,02,15,14.00
2013,05,06,02,16,13.90
2013,05,06,02,17,13.90
2013,05,06,02,18,13.80
2013,05,06,02,19,13.80
2013,05,06,02,20,13.80
2013,05,06,02,21,13.70
2013,05,06,02,22,13.70
2013,05,06,02,23,13.70
2013,05,06,02,24,13.70
2013,05,06,02,25,13.70
2013,05,06,02,26,13.70
2013,05,06,02,27,13.60
2013,05,06,02,28,13.60
2013,05,06,02,29,13.60
2013,05,06,02,30,13.60
2013,05,06,02,31,13.60
2013,05,06,02,32,13.60
2013,05,06,02,33,13.60
2013,05,06,02,34,13.60
2013,05,06,02,35,13.50
2013,05,06,02,36,13.50
2013,05,06,02,37,13.40
2013,05,06,02,38,13.40
2013,05,06,02,39,13.40
2013,05,06,02,40,13.30
2013,05,06,02,41,13.30
2013,05,06,02,42,13.30
2013,05,06,02,43,13.30
2013,05,06,02,44,13.30
2013,05,06,02,45,13.30
2013,05,06,02,46,13.30
2013,05,06,02,47,13.40
2013,05,06,02,48,13.40
2013,05,06,02,49,13.50
2013,05,06,02,50,13.50
2013,05,06,02,51,13.50
2013,05,06,02,52,13.50
2013,05,06,02,53,13.50
2013,05,06,02,54,13.50
2013,05,06,02,55,13.50
2013,05,06,02,56,13.60
2013,05,06,02,57,13.60
2013,05,06,02,58,13.70
2013,05,06,02,59,13.70
2013,05,06,03,00,13.80
2013,05,06,03,01,13.90
2013,05,06,03,02,14.00
2013,05,06,03,03,14.10
2013,05,06,03,04,14.20
2013,05,06,03,05,14.30
2013,05,06,03,06,14.40
2013,05,06,03,07,14.50
2013,05,06,03,08,14.60
2013,05,06,03,09,14.70
2013,05,06,03,10,14.80
2013,05,06,03,11,14.80
2013,05,06,03,12,14.90
2013,05,06,03,13,14.90
2013,05,06,03,14,15.00
2013,05,06,03,15,15.00
2013,05,06,03,16,15.00
2013,05,06,03,17,14.90
2013,05,06,03,18,14.90
2013,05,06,03,19,14.80
2013,05,06,03,20,14.80
2013,05,06,03,21,14.70
2013,05,06,03,22,14.70
2013,05,06,03,23,14.60
2013,05,06,03,24,14.60
2013,05,06,03,25,14.50
2013,05,06,03,26,14.50
2013,05,06,03,27,14.40
2013,05,06,03,28,14.40
2013,05,06,03,29,14.30
2013,05,06,03,30,14.30
2013,05,06,03,31,14.30
2013,05,06,03,32,14.30
2013,05,06,03,33,14.30
2013,05,06,03,34,14.30
2013,05,06,03,35,14.30
2013,05,06,03,36,14.40
2013,05,06,03,37,14.40
2013,05,06,03,38,14.40
2013,05,06,03,39,14.40
2013,05,06,03,40,14.30
2013,05,06,03,41,14.30
2013,05,06,03,42,14.30
2013,05,06,03,43,14.30
2013,05,06,03,44,14.30
2013,05,06,03,45,14.30
2013,05,06,03,46,14.20
2013,05,06,03,47,14.20
2013,05,06,03,48,14.20
2013,05,06,03,49,14.20
2013,05,06,03,50,14.20
2013,05,06,03,51,14.10
2013,05,06,03,52,14.10
2013,05,06,03,53,14.10
2013,05,06,03,54,14.10
2013,05,06,03,55,14.10
2013,05,06,03,56,14.00
2013,05,06,03,57,14.00
2013,05,06,03,58,14.00
2013,05,06,03,59,13.90
2013,05,06,04,00,13.90
2013,05,06,04,01,13.90
2013,05,06,04,02,13.90
2013,05,06,04,03,13.80
2013,05,06,04,04,13.80
2013,05,06,04,05,13.80
2013,05,06,04,06,13.80
2013,05,06,04,07,13.80
2013,05,06,04,08,13.80
2013,05,06,04,09,13.70
2013,05,06,04,10,13.70
2013,05,06,04,11,13.70
2013,05,06,04,12,13.70
2013,05,06,04,13,13.70
2013,05,06,04,14,13.70
2013,05,06,04,15,13.70
2013,05,06,04,16,13.70
2013,05,06,04,17,13.70
2013,05,06,04,18,13.70
2013,05,06,04,19,13.70
2013,05,06,04,20,13.70
2013,05,06,04,21,13.70
2013,05,06,04,22,13.70
2013,05,06,04,23,13.70
2013,05,06,04,24,13.70
2013,05,06,04,25,13.70
2013,05,06,04,26,13.70
2013,05,06,04,27,13.70
2013,05,06,04,28,13.70
2013,05,06,04,29,13.70
2013,05,06,04,30,13.70
2013,05,06,04,31,13.70
2013,05,06,04,32,13.80
2013,05,06,04,33,13.80
2013,05,06,04,34,13.90
2013,05,06,04,35,14.00
2013,05,06,04,36,14.20
2013,05,06,04,37,14.30
2013,05,06,04,38,14.50
2013,05,06,04,39,14.70
2013,05,06,04,40,14.90
2013,05,06,04,41,15.00
2013,05,06,04,42,15.10
2013,05,06,04,43,15.20
2013,05,06,04,44,15.30
2013,05,06,04,45,15.30
2013,05,06,04,46,15.30
2013,05,06,04,47,15.30
2013,05,06,04,48,15.30
2013,05,06,04,49,15.30
2013,05,06,04,50,15.20
2013,05,06,04,51,15.10
2013,05,06,04,52,15.00
2013,05,06,04,53,15.00
2013,05,06,04,54,15.00
2013,05,06,04,55,15.00
2013,05,06,04,56,15.00
2013,05,06,04,57,15.00
2013,05,06,04,58,14.90
2013,05,06,04,59,14.80
2013,05,06,05,00,14.80
2013,05,06,05,01,14.80
2013,05,06,05,02,14.70
2013,05,06,05,03,14.70
2013,05,06,05,04,14.70
2013,05,06,05,05,14.70
2013,05,06,05,06,14.70
2013,05,06,05,07,14.60
2013,05,06,05,08,14.60
2013,05,06,05,09,14.60
2013,05,06,05,10,14.60
2013,05,06,05,11,14.60
2013,05,06,05,12,14.60
2013,05,06,05,13,14.50
2013,05,06,05,14,14.50
2013,05,06,05,15,14.50
2013,05,06,05,16,14.50
2013,05,06,05,17,14.40
2013,05,06,05,18,14.40
2013,05,06,05,19,14.40
2013,05,06,05,20,14.40
2013,05,06,05,21,14.40
2013,05,06,05,22,14.40
2013,05,06,05,23,14.40
2013,05,06,05,24,14.40
2013,05,06,05,25,14.40
2013,05,06,05,26,14.40
2013,05,06,05,27,14.40
2013,05,06,05,28,14.30
2013,05,06,05,29,14.30
2013,05,06,05,30,14.30
2013,05,06,05,31,14.30
2013,05,06,05,32,14.20
2013,05,06,05,33,14.20
2013,05,06,05,34,14.10
2013,05,06,05,35,14.10
2013,05,06,05,36,14.10
2013,05,06,05,37,14.10
2013,05,06,05,38,14.00
2013,05,06,05,39,14.00
2013,05,06,05,40,14.00
2013,05,06,05,41,13.90
2013,05,06,05,42,13.90
2013,05,06,05,43,13.90
2013,05,06,05,44,13.90
2013,05,06,05,45,13.80
2013,05,06,05,46,13.80
2013,05,06,05,47,13.80
2013,05,06,05,48,13.80
2013,05,06,05,49,13.70
2013,05,06,05,50,13.70
2013,05,06,05,51,13.70
2013,05,06,05,52,13.70
2013,05,06,05,53,13.70
2013,05,06,05,54,13.60
2013,05,06,05,55,13.60
2013,05,06,05,56,13.60
2013,05,06,05,57,13.60
2013,05,06,05,58,13.50
2013,05,06,05,59,13.50
2013,05,06,06,00,13.50
2013,05,06,06,01,13.50
2013,05,06,06,02,13.40
2013,05,06,06,03,13.40
2013,05,06,06,04,13.40
2013,05,06,06,05,13.40
2013,05,06,06,06,13.40
2013,05,06,06,07,13.40
2013,05,06,06,08,13.40
2013,05,06,06,09,13.40
2013,05,06,06,10,13.40
2013,05,06,06,11,13.40
2013,05,06,06,12,13.40
2013,05,06,06,13,13.40
2013,05,06,06,14,13.40
2013,05,06,06,15,13.50
2013,05,06,06,16,13.50
2013,05,06,06,17,13.50
2013,05,06,06,18,13.50
2013,05,06,06,19,13.60
2013,05,06,06,20,13.60
2013,05,06,06,21,13.60
2013,05,06,06,22,13.60
2013,05,06,06,23,13.70
2013,05,06,06,24,13.70
2013,05,06,06,25,13.70
2013,05,06,06,26,13.70
2013,05,06,06,27,13.70
2013,05,06,06,28,13.70
2013,05,06,06,29,13.70
2013,05,06,06,30,13.70
2013,05,06,06,31,13.70
2013,05,06,06,32,13.80
2013,05,06,06,33,13.80
2013,05,06,06,34,13.80
2013,05,06,06,35,13.80
2013,05,06,06,36,13.80
2013,05,06,06,37,13.80
2013,05,06,06,38,13.80
2013,05,06,06,39,13.80
2013,05,06,06,40,13.90
2013,05,06,06,41,13.90
2013,05,06,06,42,13.90
2013,05,06,06,43,13.90
2013,05,06,06,44,14.00
2013,05,06,06,45,14.00
2013,05,06,06,46,14.10
2013,05,06,06,47,14.10
2013,05,06,06,48,14.20
2013,05,06,06,49,14.20
2013,05,06,06,50,14.30
2013,05,06,06,51,14.30
2013,05,06,06,52,14.40
2013,05,06,06,53,14.50
2013,05,06,06,54,14.60
2013,05,06,06,55,14.60
2013,05,06,06,56,14.70
2013,05,06,06,57,14.80
2013,05,06,06,58,14.80
2013,05,06,06,59,15.00
2013,05,06,07,00,15.00
2013,05,06,07,01,15.00
2013,05,06,07,02,15.10
2013,05,06,07,03,15.20
2013,05,06,07,04,15.30
2013,05,06,07,05,15.50
2013,05,06,07,06,15.60
2013,05,06,07,07,15.70
2013,05,06,07,08,15.80
2013,05,06,07,09,15.90
2013,05,06,07,10,15.90
2013,05,06,07,11,15.90
2013,05,06,07,12,15.80
2013,05,06,07,13,15.70
2013,05,06,07,14,15.60
2013,05,06,07,15,15.50
2013,05,06,07,16,15.40
2013,05,06,07,17,15.30
2013,05,06,07,18,15.30
2013,05,06,07,19,15.30
2013,05,06,07,20,15.40
2013,05,06,07,21,15.40
2013,05,06,07,22,15.40
2013,05,06,07,23,15.40
2013,05,06,07,24,15.50
2013,05,06,07,25,15.60
2013,05,06,07,26,15.60
2013,05,06,07,27,15.70
2013,05,06,07,28,15.70
2013,05,06,07,29,15.80
2013,05,06,07,30,16.00
2013,05,06,07,31,16.20
2013,05,06,07,32,16.30
2013,05,06,07,33,16.40
2013,05,06,07,34,16.60
2013,05,06,07,35,16.70
2013,05,06,07,36,16.70
2013,05,06,07,37,16.80
2013,05,06,07,38,16.90
2013,05,06,07,39,17.00
2013,05,06,07,40,17.10
2013,05,06,07,41,17.10
2013,05,06,07,42,17.20
2013,05,06,07,43,17.20
2013,05,06,07,44,17.30
2013,05,06,07,45,17.40
2013,05,06,07,46,17.40
2013,05,06,07,47,17.40
2013,05,06,07,48,17.50
2013,05,06,07,49,17.50
2013,05,06,07,50,17.60
2013,05,06,07,51,17.60
2013,05,06,07,52,17.60
2013,05,06,07,53,17.60
2013,05,06,07,54,17.60
2013,05,06,07,55,17.70
2013,05,06,07,56,17.70
2013,05,06,07,57,17.70
2013,05,06,07,58,17.70
2013,05,06,07,59,17.80
2013,05,06,08,00,17.80
2013,05,06,08,01,17.90
2013,05,06,08,02,18.00
2013,05,06,08,03,18.10
2013,05,06,08,04,18.30
2013,05,06,08,05,18.50
2013,05,06,08,06,18.60
2013,05,06,08,07,18.80
2013,05,06,08,08,18.80
2013,05,06,08,09,18.90
2013,05,06,08,10,18.90
2013,05,06,08,11,18.90
2013,05,06,08,12,18.90
2013,05,06,08,13,18.90
2013,05,06,08,14,18.90
2013,05,06,08,15,18.80
2013,05,06,08,16,18.80
2013,05,06,08,17,18.80
2013,05,06,08,18,18.80
2013,05,06,08,19,18.80
2013,05,06,08,20,18.80
2013,05,06,08,21,18.80
2013,05,06,08,22,18.80
2013,05,06,08,23,18.80
2013,05,06,08,24,18.80
2013,05,06,08,25,18.90
2013,05,06,08,26,18.90
2013,05,06,08,27,19.00
2013,05,06,08,28,19.10
2013,05,06,08,29,19.00
2013,05,06,08,30,18.80
2013,05,06,08,31,18.70
2013,05,06,08,32,18.60
2013,05,06,08,33,18.50
2013,05,06,08,34,18.40
2013,05,06,08,35,18.30
2013,05,06,08,36,18.30
2013,05,06,08,37,18.30
2013,05,06,08,38,18.20
2013,05,06,08,39,18.20
2013,05,06,08,40,18.20
2013,05,06,08,41,18.30
2013,05,06,08,42,18.30
2013,05,06,08,43,18.30
2013,05,06,08,44,18.30
2013,05,06,08,45,18.30
2013,05,06,08,46,18.30
2013,05,06,08,47,18.40
2013,05,06,08,48,18.50
2013,05,06,08,49,18.70
2013,05,06,08,50,18.80
2013,05,06,08,51,18.90
2013,05,06,08,52,19.10
2013,05,06,08,53,19.20
2013,05,06,08,54,19.30
2013,05,06,08,55,19.40
2013,05,06,08,56,19.50
2013,05,06,08,57,19.50
2013,05,06,08,58,19.60
2013,05,06,08,59,19.70
2013,05,06,09,00,19.80
2013,05,06,09,01,19.80
2013,05,06,09,02,19.80
2013,05,06,09,03,19.80
2013,05,06,09,04,19.80
2013,05,06,09,05,19.80
2013,05,06,09,06,19.80
2013,05,06,09,07,19.80
2013,05,06,09,08,19.90
2013,05,06,09,09,19.90
2013,05,06,09,10,19.90
2013,05,06,09,11,19.90
2013,05,06,09,12,19.90
2013,05,06,09,13,19.90
2013,05,06,09,14,19.90
2013,05,06,09,15,20.00
2013,05,06,09,16,20.00
2013,05,06,09,17,20.00
2013,05,06,09,18,19.80
2013,05,06,09,19,19.70
2013,05,06,09,20,19.60
2013,05,06,09,21,19.50
2013,05,06,09,22,19.40
2013,05,06,09,23,19.40
2013,05,06,09,24,19.40
2013,05,06,09,25,19.40
2013,05,06,09,26,19.40
2013,05,06,09,27,19.40
2013,05,06,09,28,19.50
2013,05,06,09,29,19.60
2013,05,06,09,30,19.60
2013,05,06,09,31,19.60
2013,05,06,09,32,19.70
2013,05,06,09,33,19.80
2013,05,06,09,34,19.90
2013,05,06,09,35,19.90
2013,05,06,09,36,19.90
2013,05,06,09,37,19.80
2013,05,06,09,38,19.70
2013,05,06,09,39,19.60
2013,05,06,09,40,19.50
2013,05,06,09,41,19.40
2013,05,06,09,42,19.30
2013,05,06,09,43,19.30
2013,05,06,09,44,19.30
2013,05,06,09,45,19.40
2013,05,06,09,46,19.40
2013,05,06,09,47,19.50
2013,05,06,09,48,19.60
2013,05,06,09,49,19.60
2013,05,06,09,50,19.70
2013,05,06,09,51,19.80
2013,05,06,09,52,19.80
2013,05,06,09,53,19.80
2013,05,06,09,54,19.80
2013,05,06,09,55,19.80
2013,05,06,09,56,19.80
2013,05,06,09,57,19.80
2013,05,06,09,58,19.70
2013,05,06,09,59,19.60
2013,05,06,10,00,19.50
2013,05,06,10,01,19.40
2013,05,06,10,02,19.30
2013,05,06,10,03,19.30
2013,05,06,10,04,19.20
2013,05,06,10,05,19.20
2013,05,06,10,06,19.20
2013,05,06,10,07,19.20
2013,05,06,10,08,19.20
2013,05,06,10,09,19.20
2013,05,06,10,10,19.40
2013,05,06,10,11,19.50
2013,05,06,10,12,19.60
2013,05,06,10,13,19.70
2013,05,06,10,14,19.80
2013,05,06,10,15,19.90
2013,05,06,10,16,20.00
2013,05,06,10,17,20.10
2013,05,06,10,18,20.20
2013,05,06,10,19,20.40
2013,05,06,10,20,20.50
2013,05,06,10,21,20.60
2013,05,06,10,22,20.70
2013,05,06,10,23,20.80
2013,05,06,10,24,20.90
2013,05,06,10,25,20.90
2013,05,06,10,26,21.00
2013,05,06,10,27,21.00
2013,05,06,10,28,21.10
2013,05,06,10,29,21.10
2013,05,06,10,30,21.10
2013,05,06,10,31,21.10
2013,05,06,10,32,21.10
2013,05,06,10,33,21.10
2013,05,06,10,34,21.10
2013,05,06,10,35,21.10
2013,05,06,10,36,21.10
2013,05,06,10,37,21.10
2013,05,06,10,38,21.10
2013,05,06,10,39,21.20
2013,05,06,10,40,21.40
2013,05,06,10,41,21.40
2013,05,06,10,42,21.40
2013,05,06,10,43,21.40
2013,05,06,10,44,21.50
2013,05,06,10,45,21.50
2013,05,06,10,46,21.50
2013,05,06,10,47,21.50
2013,05,06,10,48,21.40
2013,05,06,10,49,21.50
2013,05,06,10,50,21.60
2013,05,06,10,51,21.60
2013,05,06,10,52,21.60
2013,05,06,10,53,21.40
2013,05,06,10,54,21.30
2013,05,06,10,55,21.10
2013,05,06,10,56,21.00
2013,05,06,10,57,20.80
2013,05,06,10,58,20.60
2013,05,06,10,59,20.30
2013,05,06,11,00,20.00
2013,05,06,11,01,19.80
2013,05,06,11,02,19.80
2013,05,06,11,03,19.70
2013,05,06,11,04,19.70
2013,05,06,11,05,19.70
2013,05,06,11,06,19.60
2013,05,06,11,07,19.50
2013,05,06,11,08,19.40
2013,05,06,11,09,19.30
2013,05,06,11,10,19.30
2013,05,06,11,11,19.30
2013,05,06,11,12,19.30
2013,05,06,11,13,19.30
2013,05,06,11,14,19.30
2013,05,06,11,15,19.30
2013,05,06,11,16,19.40
2013,05,06,11,17,19.50
2013,05,06,11,18,19.50
2013,05,06,11,19,19.50
2013,05,06,11,20,19.50
2013,05,06,11,21,19.60
2013,05,06,11,22,19.70
2013,05,06,11,23,19.80
2013,05,06,11,24,19.80
2013,05,06,11,25,19.90
2013,05,06,11,26,19.90
2013,05,06,11,27,20.00
2013,05,06,11,28,20.20
2013,05,06,11,29,20.20
2013,05,06,11,30,20.20
2013,05,06,11,31,20.20
2013,05,06,11,32,20.20
2013,05,06,11,33,20.30
2013,05,06,11,34,20.40
2013,05,06,11,35,20.40
2013,05,06,11,36,20.40
2013,05,06,11,37,20.50
2013,05,06,11,38,20.60
2013,05,06,11,39,20.60
2013,05,06,11,40,20.60
2013,05,06,11,41,20.70
2013,05,06,11,42,20.80
2013,05,06,11,43,20.90
2013,05,06,11,44,20.90
2013,05,06,11,45,20.90
2013,05,06,11,46,21.00
2013,05,06,11,47,21.00
2013,05,06,11,48,21.10
2013,05,06,11,49,21.10
2013,05,06,11,50,21.10
2013,05,06,11,51,21.10
2013,05,06,11,52,21.10
2013,05,06,11,53,21.10
2013,05,06,11,54,21.10
2013,05,06,11,55,21.10
2013,05,06,11,56,21.10
2013,05,06,11,57,21.10
2013,05,06,11,58,21.10
2013,05,06,11,59,21.00
2013,05,06,12,00,21.00
2013,05,06,12,01,21.00
2013,05,06,12,02,20.90
2013,05,06,12,03,20.90
2013,05,06,12,04,21.00
2013,05,06,12,05,21.10
2013,05,06,12,06,21.20
2013,05,06,12,07,21.10
2013,05,06,12,08,21.00
2013,05,06,12,09,21.00
2013,05,06,12,10,20.90
2013,05,06,12,11,20.80
2013,05,06,12,12,20.80
2013,05,06,12,13,20.80
2013,05,06,12,14,20.80
2013,05,06,12,15,20.90
2013,05,06,12,16,20.80
2013,05,06,12,17,20.80
2013,05,06,12,18,20.80
2013,05,06,12,19,20.90
2013,05,06,12,20,21.00
2013,05,06,12,21,21.10
2013,05,06,12,22,21.10
2013,05,06,12,23,21.10
2013,05,06,12,24,21.10
2013,05,06,12,25,21.20
2013,05,06,12,26,21.20
2013,05,06,12,27,21.20
2013,05,06,12,28,21.10
2013,05,06,12,29,21.00
2013,05,06,12,30,21.00
2013,05,06,12,31,20.90
2013,05,06,12,32,20.90
2013,05,06,12,33,20.90
2013,05,06,12,34,20.80
2013,05,06,12,35,20.90
2013,05,06,12,36,20.90
2013,05,06,12,37,21.00
2013,05,06,12,38,21.00
2013,05,06,12,39,21.10
2013,05,06,12,40,21.10
2013,05,06,12,41,21.10
2013,05,06,12,42,21.20
2013,05,06,12,43,21.20
2013,05,06,12,44,21.30
2013,05,06,12,45,21.30
2013,05,06,12,46,21.30
2013,05,06,12,47,21.30
2013,05,06,12,48,21.40
2013,05,06,12,49,21.50
2013,05,06,12,50,21.50
2013,05,06,12,51,21.60
2013,05,06,12,52,21.60
2013,05,06,12,53,21.70
2013,05,06,12,54,21.80
2013,05,06,12,55,21.80
2013,05,06,12,56,21.70
2013,05,06,12,57,21.60
2013,05,06,12,58,21.50
2013,05,06,12,59,21.40
2013,05,06,13,00,21.30
2013,05,06,13,01,21.40
2013,05,06,13,02,21.40
2013,05,06,13,03,21.40
2013,05,06,13,04,21.40
2013,05,06,13,05,21.30
2013,05,06,13,06,21.30
2013,05,06,13,07,21.30
2013,05,06,13,08,21.30
2013,05,06,13,09,21.40
2013,05,06,13,10,21.40
2013,05,06,13,11,21.50
2013,05,06,13,12,21.60
2013,05,06,13,13,21.70
2013,05,06,13,14,21.80
2013,05,06,13,15,21.80
2013,05,06,13,16,21.80
2013,05,06,13,17,21.70
2013,05,06,13,18,21.70
2013,05,06,13,19,21.70
2013,05,06,13,20,21.70
2013,05,06,13,21,21.70
2013,05,06,13,22,21.60
2013,05,06,13,23,21.50
2013,05,06,13,24,21.50
2013,05,06,13,25,21.40
2013,05,06,13,26,21.40
2013,05,06,13,27,21.40
2013,05,06,13,28,21.50
2013,05,06,13,29,21.50
2013,05,06,13,30,21.60
2013,05,06,13,31,21.60
2013,05,06,13,32,21.60
2013,05,06,13,33,21.60
2013,05,06,13,34,21.50
2013,05,06,13,35,21.50
2013,05,06,13,36,21.40
2013,05,06,13,37,21.50
2013,05,06,13,38,21.50
2013,05,06,13,39,21.60
2013,05,06,13,40,21.70
2013,05,06,13,41,21.80
2013,05,06,13,42,22.00
2013,05,06,13,43,22.20
2013,05,06,13,44,22.20
2013,05,06,13,45,22.20
2013,05,06,13,46,22.20
2013,05,06,13,47,22.00
2013,05,06,13,48,21.90
2013,05,06,13,49,21.90
2013,05,06,13,50,21.80
2013,05,06,13,51,21.80
2013,05,06,13,52,21.80
2013,05,06,13,53,21.70
2013,05,06,13,54,21.70
2013,05,06,13,55,21.80
2013,05,06,13,56,21.90
2013,05,06,13,57,22.00
2013,05,06,13,58,22.10
2013,05,06,13,59,22.10
2013,05,06,14,00,22.20
2013,05,06,14,01,22.30
2013,05,06,14,02,22.30
2013,05,06,14,03,22.40
2013,05,06,14,04,22.40
2013,05,06,14,05,22.40
2013,05,06,14,06,22.40
2013,05,06,14,07,22.40
2013,05,06,14,08,22.40
2013,05,06,14,09,22.40
2013,05,06,14,10,22.50
2013,05,06,14,11,22.40
2013,05,06,14,12,22.30
2013,05,06,14,13,22.20
2013,05,06,14,14,22.10
2013,05,06,14,15,22.00
2013,05,06,14,16,21.90
2013,05,06,14,17,21.90
2013,05,06,14,18,21.90
2013,05,06,14,19,22.00
2013,05,06,14,20,22.00
2013,05,06,14,21,22.10
2013,05,06,14,22,22.20
2013,05,06,14,23,22.20
2013,05,06,14,24,22.30
2013,05,06,14,25,22.30
2013,05,06,14,26,22.40
2013,05,06,14,27,22.50
2013,05,06,14,28,22.50
2013,05,06,14,29,22.40
2013,05,06,14,30,22.30
2013,05,06,14,31,22.30
2013,05,06,14,32,22.30
2013,05,06,14,33,22.30
2013,05,06,14,34,22.30
2013,05,06,14,35,22.30
2013,05,06,14,36,22.30
2013,05,06,14,37,22.40
2013,05,06,14,38,22.40
2013,05,06,14,39,22.50
2013,05,06,14,40,22.60
2013,05,06,14,41,22.60
2013,05,06,14,42,22.70
2013,05,06,14,43,22.70
2013,05,06,14,44,22.80
2013,05,06,14,45,22.80
2013,05,06,14,46,23.00
2013,05,06,14,47,23.10
2013,05,06,14,48,23.20
2013,05,06,14,49,23.30
2013,05,06,14,50,23.40
2013,05,06,14,51,23.50
2013,05,06,14,52,23.50
2013,05,06,14,53,23.60
2013,05,06,14,54,23.70
2013,05,06,14,55,23.80
2013,05,06,14,56,23.70
2013,05,06,14,57,23.60
2013,05,06,14,58,23.60
2013,05,06,14,59,23.60
2013,05,06,15,00,23.70
2013,05,06,15,01,23.70
2013,05,06,15,02,23.80
2013,05,06,15,03,23.80
2013,05,06,15,04,23.90
2013,05,06,15,05,24.00
2013,05,06,15,06,24.00
2013,05,06,15,07,23.90
2013,05,06,15,08,23.70
2013,05,06,15,09,23.70
2013,05,06,15,10,23.60
2013,05,06,15,11,23.60
2013,05,06,15,12,23.70
2013,05,06,15,13,23.70
2013,05,06,15,14,23.80
2013,05,06,15,15,23.90
2013,05,06,15,16,24.10
2013,05,06,15,17,24.20
2013,05,06,15,18,24.30
2013,05,06,15,19,24.30
2013,05,06,15,20,24.30
2013,05,06,15,21,24.40
2013,05,06,15,22,24.40
2013,05,06,15,23,24.40
2013,05,06,15,24,24.40
2013,05,06,15,25,24.40
2013,05,06,15,26,24.40
2013,05,06,15,27,24.30
2013,05,06,15,28,24.30
2013,05,06,15,29,24.20
2013,05,06,15,30,24.30
2013,05,06,15,31,24.30
2013,05,06,15,32,24.40
2013,05,06,15,33,24.40
2013,05,06,15,34,24.50
2013,05,06,15,35,24.60
2013,05,06,15,36,24.70
2013,05,06,15,37,24.90
2013,05,06,15,38,24.90
2013,05,06,15,39,24.70
2013,05,06,15,40,24.60
2013,05,06,15,41,24.40
2013,05,06,15,42,24.30
2013,05,06,15,43,24.30
2013,05,06,15,44,24.20
2013,05,06,15,45,24.20
2013,05,06,15,46,24.20
2013,05,06,15,47,24.30
2013,05,06,15,48,24.30
2013,05,06,15,49,24.40
2013,05,06,15,50,24.50
2013,05,06,15,51,24.60
2013,05,06,15,52,24.70
2013,05,06,15,53,24.80
2013,05,06,15,54,24.90
2013,05,06,15,55,24.80
2013,05,06,15,56,24.80
2013,05,06,15,57,24.70
2013,05,06,15,58,24.70
2013,05,06,15,59,24.60
2013,05,06,16,00,24.50
2013,05,06,16,01,24.40
2013,05,06,16,02,24.10
2013,05,06,16,03,23.90
2013,05,06,16,04,23.70
2013,05,06,16,05,23.60
2013,05,06,16,06,23.50
2013,05,06,16,07,23.50
2013,05,06,16,08,23.40
2013,05,06,16,09,23.30
2013,05,06,16,10,23.20
2013,05,06,16,11,23.20
2013,05,06,16,12,23.20
2013,05,06,16,13,23.20
2013,05,06,16,14,23.20
2013,05,06,16,15,23.20
2013,05,06,16,16,23.20
2013,05,06,16,17,23.20
2013,05,06,16,18,23.20
2013,05,06,16,19,23.10
2013,05,06,16,20,23.00
2013,05,06,16,21,23.00
2013,05,06,16,22,23.00
2013,05,06,16,23,23.00
2013,05,06,16,24,23.00
2013,05,06,16,25,23.10
2013,05,06,16,26,23.20
2013,05,06,16,27,23.40
2013,05,06,16,28,23.50
2013,05,06,16,29,23.60
2013,05,06,16,30,23.60
2013,05,06,16,31,23.70
2013,05,06,16,32,23.80
2013,05,06,16,33,23.90
2013,05,06,16,34,23.90
2013,05,06,16,35,23.80
2013,05,06,16,36,23.80
2013,05,06,16,37,23.80
2013,05,06,16,38,23.80
2013,05,06,16,39,23.70
2013,05,06,16,40,23.60
2013,05,06,16,41,23.60
2013,05,06,16,42,23.50
2013,05,06,16,43,23.40
2013,05,06,16,44,23.10
2013,05,06,16,45,22.70
2013,05,06,16,46,22.30
2013,05,06,16,47,22.00
2013,05,06,16,48,21.80
2013,05,06,16,49,21.60
2013,05,06,16,50,21.60
2013,05,06,16,51,21.60
2013,05,06,16,52,21.60
2013,05,06,16,53,21.60
2013,05,06,16,54,21.70
2013,05,06,16,55,21.70
2013,05,06,16,56,21.70
2013,05,06,16,57,21.80
2013,05,06,16,58,21.80
2013,05,06,16,59,21.80
2013,05,06,17,00,21.80
2013,05,06,17,01,21.80
2013,05,06,17,02,21.80
2013,05,06,17,03,21.80
2013,05,06,17,04,21.80
2013,05,06,17,05,21.80
2013,05,06,17,06,21.80
2013,05,06,17,07,21.80
2013,05,06,17,08,21.80
2013,05,06,17,09,21.80
2013,05,06,17,10,21.80
2013,05,06,17,11,21.90
2013,05,06,17,12,21.90
2013,05,06,17,13,22.00
2013,05,06,17,14,22.10
2013,05,06,17,15,22.10
2013,05,06,17,16,22.20
2013,05,06,17,17,22.30
2013,05,06,17,18,22.40
2013,05,06,17,19,22.50